Latest Coastal Weather Observations for Ceduna

IDS60701

Issued at 3:01 am CDT Wednesday 22 February 2017 (issued every 10 minutes, with the page automatically refreshed every 10 minutes)

About coastal observations | Map of coastal stations | Coastal observations for SA | Marine services | Other Formats
Station Details ID: 018012 Name: CEDUNA AMO Lat: -32.13 Lon: 133.70 Height: 15.3 m
Data from the previous 72 hours. | See also: Recent months at Ceduna
Date/Time
CDT
Temp
°C
Wind Pressure Rain since
9am
mm
Weather Cloud Vis
km
Sea
Height
m
Swell
Dir  Spd
kts
Gust
kts
hPa Trend Height
m
Period
s
Dir
22/03:00am 21.8 W 20 34 1006.4 - - - - 8 - - - -
22/02:59am 22.4 WNW 19 34 1006.3 - 0.0 - - 10 - - - -
22/02:56am 26.8 WNW 18 34 1006.2 - 0.0 - - 10 - - - -
22/02:47am 28.1 N 20 25 1005.4 - 0.0 - - 10 - - - -
22/02:30am 27.9 NNE 20 27 1003.0 - 0.0 - - 10 - - - -
22/02:00am 28.3 NNE 21 27 1003.3 - 0.0 - - 10 - - - -
22/01:30am 28.6 NNE 20 26 1003.8 - 0.0 - - 10 - - - -
22/01:00am 28.0 NNE 16 22 1004.3 - 0.0 - - 10 - - - -
22/12:30am 27.4 NNE 17 21 1004.7 - 0.0 - - 10 - - - -
22/12:00am 26.6 NE 14 17 1005.3 F 0.0 - Partly cloudy 10 - - - -
 
Date/Time
CDT
Temp
°C
Wind Pressure Rain since
9am
mm
Weather Cloud Vis
km
Sea
Height
m
Swell
Dir  Spd
kts
Gust
kts
hPa Trend Height
m
Period
s
Dir
21/11:30pm 26.3 NE 13 15 1006.0 - 0.0 - - 10 - - - -
21/11:00pm 26.7 NE 12 14 1006.4 - 0.0 - - 10 - - - -
21/10:30pm 26.0 NE 10 12 1006.7 - 0.0 - - 10 - - - -
21/10:00pm 27.2 NE 10 11 1006.6 - 0.0 - - 10 - - - -
21/09:30pm 28.6 NE 11 14 1006.4 - 0.0 - - 10 - - - -
21/09:00pm 29.6 NE 11 14 1006.3 F 0.0 - - 10 - - - -
21/08:30pm 31.3 NNE 11 13 1006.5 - 0.0 - - 10 - - - -
21/08:00pm 32.6 NNE 13 17 1006.2 - 0.0 - - 10 - - - -
21/07:43pm 33.3 NNE 15 25 1006.0 - 0.0 - - 10 - - - -
21/07:30pm 34.2 NNE 15 20 1006.0 - 0.0 - - 10 - - - -
21/07:00pm 34.1 N 13 21 1006.2 - 0.0 - - 10 - - - -
21/06:30pm 35.1 N 17 23 1006.4 - 0.0 - - 10 - - - -
21/06:00pm 35.1 NNE 16 21 1006.7 F 0.0 - - 10 - - - -
21/05:39pm 35.5 N 16 26 1006.9 - 0.0 - - 10 - - - -
21/05:30pm 35.6 N 16 24 1006.9 - 0.0 - - 10 - - - -
21/05:06pm 35.7 N 15 29 1007.0 - 0.0 - - 10 - - - -
21/05:00pm 35.7 N 15 21 1007.2 - 0.0 - - 10 - - - -
21/04:30pm 35.2 N 15 22 1007.7 - 0.0 - - 10 - - - -
21/04:00pm 35.6 NNE 15 22 1008.0 - 0.0 - - 10 - - - -
21/03:43pm 35.5 N 15 27 1008.5 - 0.0 - - 10 - - - -
21/03:30pm 35.6 NNE 16 23 1008.8 - 0.0 - - 10 - - - -
21/03:00pm 35.4 N 13 20 1009.5 F 0.0 - - 10 - - - -
21/02:30pm 34.0 N 12 22 1010.1 - 0.0 - - 10 - - - -
21/02:00pm 33.3 N 15 20 1010.8 - 0.0 - - 10 - - - -
21/01:30pm 33.2 N 15 22 1011.3 - 0.0 - - 10 - - - -
21/01:01pm 33.2 N 16 26 1012.0 - 0.0 - - 10 - - - -
21/01:00pm 32.7 N 17 26 1012.0 - 0.0 - - 10 - - - -
21/12:58pm 33.5 N 16 26 1012.0 - 0.0 - - 10 - - - -
21/12:30pm 31.9 N 18 23 1012.5 - 0.0 - - 10 - - - -
21/12:00pm 31.3 N 18 26 1013.0 F 0.0 - - 10 - - - -
21/11:30am 30.2 NNE 19 24 1013.4 - 0.0 - - 10 - - - -
21/11:00am 28.8 N 19 24 1013.8 - 0.0 - - 10 - - - -
21/10:30am 27.6 N 18 23 1014.1 - 0.0 - - 10 - - - -
21/10:00am 26.3 NNE 15 20 1014.4 - 0.0 - - 10 - - - -
21/09:30am 23.7 NE 14 18 1014.7 - 0.0 - - 10 - - - -
21/09:00am 20.8 NE 12 15 1014.9 F 0.0 - - 10 - - - -
21/08:30am 17.7 NE 9 12 1014.9 - 0.0 - - 10 - - - -
21/08:00am 15.4 NE 9 11 1014.7 - 0.0 - - 10 - - - -
21/07:30am 12.6 NE 9 10 1014.5 - 0.0 - - 10 - - - -
21/07:00am 11.8 ENE 7 8 1014.3 - 0.0 - - 10 - - - -
21/06:30am 11.9 NE 7 9 1014.1 - 0.0 - - 10 - - - -
21/06:00am 11.9 NE 9 11 1013.9 F 0.0 - - 10 - - - -
21/05:30am 12.5 ENE 10 12 1013.8 - 0.0 - - 10 - - - -
21/05:00am 12.1 ENE 9 10 1013.8 - 0.0 - - 10 - - - -
21/04:30am 12.3 ENE 8 9 1013.8 - 0.0 - - 10 - - - -
21/04:00am 12.3 ENE 8 10 1013.7 - 0.0 - - 10 - - - -
21/03:30am 10.7 E 6 7 1014.2 - 0.0 - - 10 - - - -
21/03:00am 11.0 ENE 5 7 1014.7 F 0.0 - - 10 - - - -
21/02:30am 11.3 ENE 5 7 1015.3 - 0.0 - - 10 - - - -
21/02:00am 12.0 ENE 5 7 1015.7 - 0.0 - - 10 - - - -
21/01:30am 12.6 E 7 7 1016.0 - 0.0 - - 10 - - - -
21/01:00am 13.3 ESE 5 5 1016.3 - 0.0 - - 10 - - - -
21/12:30am 13.6 ENE 4 5 1016.5 - 0.0 - - 10 - - - -
21/12:00am 14.2 E 5 5 1016.7 F 0.0 - - 10 - - - -
 
Date/Time
CDT
Temp
°C
Wind Pressure Rain since
9am
mm
Weather Cloud Vis
km
Sea
Height
m
Swell
Dir  Spd
kts
Gust
kts
hPa Trend Height
m
Period
s
Dir
20/11:30pm 15.1 ESE 5 7 1016.9 - 0.0 - - 10 - - - -
20/11:00pm 16.5 SE 9 12 1017.0 - 0.0 - - 10 - - - -
20/10:30pm 15.7 ESE 6 8 1017.0 - 0.0 - - 10 - - - -
20/10:00pm 16.7 SE 8 10 1016.8 - 0.0 - - 10 - - - -
20/09:30pm 17.1 SE 9 13 1016.6 - 0.0 - - 10 - - - -
20/09:00pm 17.4 SSE 10 13 1016.2 F 0.0 - - 10 - - - -
20/08:30pm 17.9 SSE 11 14 1016.3 - 0.0 - - 10 - - - -
20/08:00pm 18.5 SSE 13 17 1016.1 - 0.0 - - 10 - - - -
20/07:30pm 19.0 SSE 15 20 1015.9 - 0.0 - - 10 - - - -
20/07:00pm 19.6 S 15 19 1015.8 - 0.0 - - 10 - - - -
20/06:30pm 20.1 S 15 19 1015.9 - 0.0 - - 10 - - - -
20/06:00pm 20.9 S 15 19 1015.8 F 0.0 - - 10 - - - -
20/05:30pm 21.4 S 14 18 1015.6 - 0.0 - - 10 - - - -
20/05:00pm 20.9 S 14 19 1015.6 - 0.0 - - 10 - - - -
20/04:30pm 21.6 S 13 17 1015.9 - 0.0 - - 10 - - - -
20/04:00pm 21.6 S 13 17 1016.0 - 0.0 - - 10 - - - -
20/03:30pm 21.5 S 14 18 1016.3 - 0.0 - - 10 - - - -
20/03:00pm 22.3 SSW 14 17 1016.7 F 0.0 - - 10 - - - -
20/02:30pm 21.1 SW 15 18 1017.1 - 0.0 - - 10 - - - -
20/02:00pm 21.5 SW 13 17 1017.2 - 0.0 - - 10 - - - -
20/01:30pm 20.7 SW 13 17 1017.5 - 0.0 - - 10 - - - -
20/01:00pm 21.5 WSW 11 14 1017.7 - 0.0 - - 10 - - - -
20/12:30pm 20.6 SW 11 15 1018.0 - 0.0 - - 10 - - - -
20/12:00pm 19.6 SW 10 14 1018.4 F 0.0 - - 10 - - - -
20/11:30am 19.7 E 5 9 1018.8 - 0.0 - Partly cloudy 10 - - - -
20/11:00am 20.3 SE 3 9 1019.0 - 0.0 - Partly cloudy 10 - - - -
20/10:30am 20.0 SE 6 8 1019.5 - 0.0 - Partly cloudy 10 - - - -
20/10:00am 19.0 NE 5 8 1019.7 - 0.0 - Cloudy 10 - - - -
20/09:30am 17.8 NE 6 8 1019.7 - 0.0 - Cloudy 10 - - - -
20/09:00am 16.6 NNW 4 5 1019.7 S 0.0 - Cloudy 10 - - - -
20/08:30am 16.2 NNE 3 4 1019.6 - 0.0 - Cloudy 10 - - - -
20/08:00am 15.5 NNE 3 4 1019.3 - 0.0 - Cloudy 10 - - - -
20/07:30am 15.3 NNE 2 4 1019.1 - 0.0 - Cloudy 10 - - - -
20/07:00am 15.2 NE 5 5 1018.7 - 0.0 - Cloudy 10 - - - -
20/06:30am 14.8 NE 5 6 1018.4 - 0.0 - Cloudy 10 - - - -
20/06:00am 14.4 NE 6 6 1018.2 F 0.0 - Mostly cloudy 10 - - - -
20/05:30am 14.8 ENE 5 6 1018.0 - 0.0 - Cloudy 10 - - - -
20/05:00am 15.6 ENE 4 5 1017.9 - 0.0 - Cloudy 10 - - - -
20/04:30am 15.7 ESE 3 4 1018.0 - 0.0 - Cloudy 10 - - - -
20/04:00am 16.2 SSE 6 9 1018.0 - 0.0 - Partly cloudy 10 - - - -
20/03:30am 16.2 ESE 5 6 1018.2 - 0.0 - Cloudy 10 - - - -
20/03:00am 16.0 ESE 6 7 1018.4 F 0.0 - Mostly cloudy 10 - - - -
20/02:30am 16.8 SSE 5 7 1018.4 - 0.0 - Cloudy 10 - - - -
20/02:00am 16.6 SSE 7 9 1018.4 - 0.0 - Cloudy 10 - - - -
20/01:30am 16.0 ESE 5 6 1018.7 - 0.0 - Partly cloudy 10 - - - -
20/01:00am 16.0 SE 4 6 1019.0 - 0.0 - Cloudy 10 - - - -
20/12:30am 16.1 SSE 8 11 1019.3 - 0.0 - Partly cloudy 10 - - - -
20/12:00am 16.3 SSE 6 9 1019.4 F 0.0 - Mostly cloudy 10 - - - -
 
Date/Time
CDT
Temp
°C
Wind Pressure Rain since
9am
mm
Weather Cloud Vis
km
Sea
Height
m
Swell
Dir  Spd
kts
Gust
kts
hPa Trend Height
m
Period
s
Dir
19/11:30pm 17.0 SE 8 11 1019.5 - 0.0 - Cloudy 10 - - - -
19/11:00pm 16.3 S 6 9 1019.8 - 0.0 - Partly cloudy 10 - - - -
19/10:30pm 17.2 SSE 9 14 1019.8 - 0.0 - Cloudy 10 - - - -
19/10:00pm 16.5 S 7 10 1019.7 - 0.0 - Partly cloudy 10 - - - -
19/09:30pm 15.5 S 6 8 1019.7 - 0.0 - Partly cloudy 10 - - - -
19/09:00pm 16.0 S 7 9 1019.5 F 0.0 - - 10 - - - -
19/08:30pm 16.5 S 9 11 1019.4 - 0.0 - - 10 - - - -
19/08:00pm 17.3 SSW 10 13 1019.2 - 0.0 - - 10 - - - -
19/07:30pm 18.0 SSW 11 14 1019.1 - 0.0 - - 10 - - - -
19/07:00pm 18.6 SSW 12 16 1019.3 - 0.0 - Partly cloudy 10 - - - -
19/06:30pm 19.2 SSW 13 18 1019.2 - 0.0 - Partly cloudy 10 - - - -
19/06:00pm 18.8 SSW 13 16 1019.3 F 0.0 - Mostly cloudy 10 - - - -
19/05:30pm 19.8 SSW 13 17 1019.3 - 0.0 - Partly cloudy 10 - - - -
19/05:00pm 19.1 SSW 11 15 1019.5 - 0.0 - Cloudy 10 - - - -
19/04:30pm 19.7 SSW 12 18 1019.5 - 0.0 - Partly cloudy 10 - - - -
19/04:00pm 19.5 SSW 12 17 1019.7 - 0.0 - Partly cloudy 10 - - - -
19/03:30pm 19.6 S 11 15 1019.9 - 0.0 - Partly cloudy 10 - - - -
19/03:00pm 19.3 SSW 12 15 1020.2 R 0.0 - Cloudy 10 - - - -
19/02:30pm 20.4 SSW 13 17 1020.1 - 0.0 - Cloudy 10 - - - -
19/02:00pm 20.5 SSW 12 17 1020.3 - 0.0 - Cloudy 10 - - - -
19/01:30pm 20.2 SW 11 14 1020.5 - 0.0 - Cloudy 10 - - - -
19/01:00pm 19.5 S 12 19 1020.7 - 0.0 - Partly cloudy 10 - - - -
19/12:30pm 18.7 SSW 11 15 1021.0 - 0.0 - Partly cloudy 10 - - - -
19/12:00pm 19.4 S 11 14 1021.1 R 0.0 - Cloudy 10 - - - -
19/11:30am 19.6 S 11 16 1021.4 - 0.0 - Partly cloudy 10 - - - -
19/11:00am 18.8 S 8 12 1021.7 - 0.0 - Partly cloudy 10 - - - -
19/10:30am 18.3 SSE 10 14 1021.6 - 0.0 - Partly cloudy 10 - - - -
19/10:00am 18.0 S 11 14 1021.4 - 0.0 - Partly cloudy 10 - - - -
19/09:30am 17.9 S 10 12 1021.1 - 0.0 - Partly cloudy 10 - - - -
19/09:00am 16.9 SSE 7 9 1021.0 F 0.2 - Cloudy 10 - - - -
19/08:30am 17.0 S 7 9 1020.8 - 0.2 - Partly cloudy 10 - - - -
19/08:00am 16.7 S 7 9 1020.6 - 0.2 - Partly cloudy 10 - - - -
19/07:30am 15.5 S 5 6 1020.3 - 0.2 - Cloudy 10 - - - -
19/07:00am 16.0 S 7 10 1020.0 - 0.2 - Cloudy 10 - - - -
19/06:30am 16.0 SE 6 7 1019.9 - 0.2 - Cloudy 10 - - - -
19/06:00am 16.5 S 7 10 1019.8 F 0.2 - Cloudy 10 - - - -
19/05:30am 16.4 S 9 12 1019.9 - 0.2 - Partly cloudy 10 - - - -
19/05:00am 16.5 S 11 14 1019.9 - 0.2 - Partly cloudy 10 - - - -
19/04:30am 16.7 S 9 13 1019.7 - 0.2 - Partly cloudy 10 - - - -
19/04:00am 16.5 S 10 13 1019.9 - 0.2 - Partly cloudy 10 - - - -
19/03:30am 16.1 S 8 10 1019.9 - 0.2 - Partly cloudy 10 - - - -

Other Formats:

Comma delimited format used in spreadsheet applications
http://www.bom.gov.au/fwo/IDS60701/IDS60701.94653.axf

JavaScript Object Notation format (JSON) in row-major order
http://www.bom.gov.au/fwo/IDS60701/IDS60701.94653.json